Time,TemperatureF,DewpointF,PressureIn,WindDirection,WindDirectionDegrees,WindSpeedMPH,WindSpeedGustMPH,Humidity,HourlyPrecipIn,Conditions,Clouds,dailyrainin,SolarRadiationWatts/m^2,SoftwareType,DateUTC
2013-04-11 00:01:00,41.4,20.5,29.96,NW,310,0.0,0.0,43,0.00,,,0.00,0,Wunderground v.1.15,2013-04-11 07:01:00,
2013-04-11 00:11:00,43.0,22.5,29.94,NW,309,1.0,1.0,44,0.00,,,0.00,0,Wunderground v.1.15,2013-04-11 07:11:00,
2013-04-11 00:21:00,43.2,21.6,29.94,NW,310,0.0,0.0,42,0.00,,,0.00,0,Wunderground v.1.15,2013-04-11 07:21:00,
2013-04-11 00:31:00,43.0,20.9,29.94,NW,309,0.0,0.0,41,0.00,,,0.00,0,Wunderground v.1.15,2013-04-11 07:31:00,
2013-04-11 00:36:00,42.8,21.3,29.94,NW,310,0.0,0.0,42,0.00,,,0.00,0,Wunderground v.1.15,2013-04-11 07:36:00,
2013-04-11 00:41:00,42.5,20.4,29.95,NW,310,0.0,0.0,41,0.00,,,0.00,0,Wunderground v.1.15,2013-04-11 07:41:00,
2013-04-11 00:56:00,41.3,19.3,29.96,NW,309,0.0,0.0,41,0.00,,,0.00,0,Wunderground v.1.15,2013-04-11 07:56:00,
2013-04-11 01:01:00,40.9,19.0,29.95,NW,310,0.0,0.0,41,0.00,,,0.00,0,Wunderground v.1.15,2013-04-11 08:01:00,
2013-04-11 01:11:00,39.8,18.0,29.96,NW,310,0.0,0.0,41,0.00,,,0.00,0,Wunderground v.1.15,2013-04-11 08:11:00,
2013-04-11 01:21:00,38.6,18.5,29.96,NW,309,0.0,0.0,44,0.00,,,0.00,0,Wunderground v.1.15,2013-04-11 08:21:00,
2013-04-11 01:31:00,38.0,18.5,29.94,NW,310,0.0,0.0,45,0.00,,,0.00,0,Wunderground v.1.15,2013-04-11 08:31:00,
2013-04-11 01:41:00,37.5,19.6,29.94,NW,310,0.0,0.0,48,0.00,,,0.00,0,Wunderground v.1.15,2013-04-11 08:41:00,
2013-04-11 01:46:00,37.7,20.2,29.93,NW,310,0.0,0.0,49,0.00,,,0.00,0,Wunderground v.1.15,2013-04-11 08:46:00,
2013-04-11 01:56:00,37.6,19.2,29.94,NW,309,0.0,0.0,47,0.00,,,0.00,0,Wunderground v.1.15,2013-04-11 08:56:00,
2013-04-11 02:06:00,37.1,19.2,29.95,NW,310,0.0,0.0,48,0.00,,,0.00,0,Wunderground v.1.15,2013-04-11 09:06:00,
2013-04-11 02:11:00,36.9,19.5,29.94,NW,310,0.0,0.0,49,0.00,,,0.00,0,Wunderground v.1.15,2013-04-11 09:11:00,
2013-04-11 02:16:00,36.8,19.4,29.94,NW,309,0.0,0.0,49,0.00,,,0.00,0,Wunderground v.1.15,2013-04-11 09:16:00,
2013-04-11 02:21:00,36.7,19.8,29.94,NW,310,0.0,0.0,50,0.00,,,0.00,0,Wunderground v.1.15,2013-04-11 09:21:00,
2013-04-11 02:31:00,36.5,19.6,29.94,NW,310,0.0,0.0,50,0.00,,,0.00,0,Wunderground v.1.15,2013-04-11 09:31:00,
2013-04-11 02:41:00,36.3,19.4,29.94,NW,310,0.0,0.0,50,0.00,,,0.00,0,Wunderground v.1.15,2013-04-11 09:41:00,
2013-04-11 02:51:00,36.1,20.2,29.94,NW,309,0.0,0.0,52,0.00,,,0.00,0,Wunderground v.1.15,2013-04-11 09:51:00,
2013-04-11 03:06:00,36.0,20.1,29.94,NW,309,0.0,0.0,52,0.00,,,0.00,0,Wunderground v.1.15,2013-04-11 10:06:00,
2013-04-11 03:11:00,36.0,20.1,29.94,NW,310,0.0,0.0,52,0.00,,,0.00,0,Wunderground v.1.15,2013-04-11 10:11:00,
2013-04-11 03:26:00,35.7,19.8,29.93,NW,310,0.0,0.0,52,0.00,,,0.00,0,Wunderground v.1.15,2013-04-11 10:26:00,
2013-04-11 03:36:00,35.5,19.1,29.93,NW,310,0.0,0.0,51,0.00,,,0.00,0,Wunderground v.1.15,2013-04-11 10:36:00,
2013-04-11 03:41:00,35.3,19.0,29.95,NW,309,0.0,0.0,51,0.00,,,0.00,0,Wunderground v.1.15,2013-04-11 10:41:00,
2013-04-11 03:46:00,35.1,18.8,29.94,NW,309,0.0,0.0,51,0.00,,,0.00,0,Wunderground v.1.15,2013-04-11 10:46:00,
2013-04-11 03:51:00,34.8,19.4,29.94,NW,310,0.0,0.0,53,0.00,,,0.00,0,Wunderground v.1.15,2013-04-11 10:51:00,
2013-04-11 04:01:00,34.4,19.5,29.95,NW,310,0.0,0.0,54,0.00,,,0.00,0,Wunderground v.1.15,2013-04-11 11:01:00,
2013-04-11 04:11:00,34.2,18.8,29.95,NW,309,0.0,0.0,53,0.00,,,0.00,0,Wunderground v.1.15,2013-04-11 11:11:00,
2013-04-11 04:16:00,33.9,18.6,29.94,NW,310,0.0,0.0,53,0.00,,,0.00,0,Wunderground v.1.15,2013-04-11 11:16:00,
2013-04-11 04:21:00,33.8,18.9,29.94,NW,310,0.0,0.0,54,0.00,,,0.00,0,Wunderground v.1.15,2013-04-11 11:21:00,
2013-04-11 04:26:00,33.5,18.6,29.95,NW,309,0.0,0.0,54,0.00,,,0.00,0,Wunderground v.1.15,2013-04-11 11:26:00,
2013-04-11 04:36:00,33.1,18.2,29.95,NW,310,0.0,0.0,54,0.00,,,0.00,0,Wunderground v.1.15,2013-04-11 11:36:00,
2013-04-11 04:46:00,32.6,16.9,29.96,NW,310,0.0,0.0,52,0.00,,,0.00,0,Wunderground v.1.15,2013-04-11 11:46:00,
2013-04-11 04:56:00,32.2,17.0,29.96,NW,309,0.0,0.0,53,0.00,,,0.00,0,Wunderground v.1.15,2013-04-11 11:56:00,
2013-04-11 05:01:00,31.9,17.5,29.96,NW,310,0.0,0.0,55,0.00,,,0.00,0,Wunderground v.1.15,2013-04-11 12:01:00,
2013-04-11 05:06:00,31.6,17.7,29.98,NW,309,0.0,0.0,56,0.00,,,0.00,0,Wunderground v.1.15,2013-04-11 12:06:00,
2013-04-11 05:11:00,31.4,17.5,29.98,NW,310,0.0,0.0,56,0.00,,,0.00,0,Wunderground v.1.15,2013-04-11 12:11:00,
2013-04-11 05:16:00,31.3,17.4,29.98,NW,310,0.0,0.0,56,0.00,,,0.00,0,Wunderground v.1.15,2013-04-11 12:16:00,
2013-04-11 05:31:00,31.0,18.3,29.99,NW,309,0.0,0.0,59,0.00,,,0.00,0,Wunderground v.1.15,2013-04-11 12:31:00,
2013-04-11 05:41:00,30.9,18.2,29.99,NW,310,0.0,0.0,59,0.00,,,0.00,0,Wunderground v.1.15,2013-04-11 12:41:00,
2013-04-11 05:46:00,30.8,18.1,29.98,NW,310,0.0,0.0,59,0.00,,,0.00,0,Wunderground v.1.15,2013-04-11 12:46:00,
2013-04-11 05:51:00,30.8,18.5,29.99,NW,309,0.0,0.0,60,0.00,,,0.00,0,Wunderground v.1.15,2013-04-11 12:51:00,
2013-04-11 06:01:00,30.8,19.3,30.01,NW,310,0.0,0.0,62,0.00,,,0.00,7,Wunderground v.1.15,2013-04-11 13:01:00,
2013-04-11 06:21:00,31.1,19.6,30.01,NW,310,0.0,0.0,62,0.00,,,0.00,21,Wunderground v.1.15,2013-04-11 13:21:00,
2013-04-11 06:31:00,31.7,21.3,30.01,NW,310,0.0,0.0,65,0.00,,,0.00,44,Wunderground v.1.15,2013-04-11 13:31:00,
2013-04-11 06:41:00,33.4,22.5,30.01,NW,310,0.0,0.0,64,0.00,,,0.00,77,Wunderground v.1.15,2013-04-11 13:41:00,
2013-04-11 06:51:00,35.5,23.8,29.99,NW,310,0.0,0.0,62,0.00,,,0.00,120,Wunderground v.1.15,2013-04-11 13:51:00,
2013-04-11 07:06:00,38.9,24.9,29.99,NW,310,0.0,0.0,57,0.00,,,0.00,188,Wunderground v.1.15,2013-04-11 14:06:00,
2013-04-11 07:21:00,41.7,25.4,29.98,NW,310,0.0,0.0,52,0.00,,,0.00,255,Wunderground v.1.15,2013-04-11 14:21:00,
2013-04-11 07:31:00,43.2,25.3,29.96,NW,306,0.0,0.0,49,0.00,,,0.00,292,Wunderground v.1.15,2013-04-11 14:31:00,
2013-04-11 07:36:00,44.0,25.5,29.96,WNW,303,0.0,0.0,48,0.00,,,0.00,315,Wunderground v.1.15,2013-04-11 14:36:00,
2013-04-11 07:46:00,45.7,26.6,29.95,WNW,302,0.0,0.0,47,0.00,,,0.00,353,Wunderground v.1.15,2013-04-11 14:46:00,
2013-04-11 07:51:00,46.6,26.9,29.95,WNW,302,0.0,0.0,46,0.00,,,0.00,371,Wunderground v.1.15,2013-04-11 14:51:00,
2013-04-11 08:01:00,48.6,27.6,29.95,WNW,302,0.0,0.0,44,0.00,,,0.00,411,Wunderground v.1.15,2013-04-11 15:01:00,
2013-04-11 08:11:00,50.8,27.9,29.95,WNW,301,0.0,0.0,41,0.00,,,0.00,448,Wunderground v.1.15,2013-04-11 15:11:00,
2013-04-11 08:21:00,52.8,28.5,29.94,WNW,302,0.0,0.0,39,0.00,,,0.00,487,Wunderground v.1.15,2013-04-11 15:21:00,
2013-04-11 08:31:00,54.7,28.9,29.92,WNW,302,0.0,0.0,37,0.00,,,0.00,526,Wunderground v.1.15,2013-04-11 15:31:00,
2013-04-11 08:41:00,56.2,28.2,29.92,WNW,301,0.0,0.0,34,0.00,,,0.00,563,Wunderground v.1.15,2013-04-11 15:41:00,
2013-04-11 08:51:00,57.6,27.9,29.91,WNW,301,0.0,0.0,32,0.00,,,0.00,598,Wunderground v.1.15,2013-04-11 15:51:00,
2013-04-11 09:01:00,59.5,27.2,29.91,WNW,301,0.0,0.0,29,0.00,,,0.00,633,Wunderground v.1.15,2013-04-11 16:01:00,
2013-04-11 09:06:00,60.0,25.0,29.91,WNW,302,0.0,0.0,26,0.00,,,0.00,650,Wunderground v.1.15,2013-04-11 16:06:00,
2013-04-11 09:11:00,60.0,25.0,29.91,WNW,301,0.0,0.0,26,0.00,,,0.00,666,Wunderground v.1.15,2013-04-11 16:11:00,
2013-04-11 09:21:00,60.6,25.5,29.90,WNW,301,0.0,0.0,26,0.00,,,0.00,696,Wunderground v.1.15,2013-04-11 16:21:00,
2013-04-11 09:26:00,61.0,24.9,29.90,WNW,301,0.0,0.0,25,0.00,,,0.00,710,Wunderground v.1.15,2013-04-11 16:26:00,
2013-04-11 09:31:00,61.4,24.2,29.90,WNW,301,0.0,0.0,24,0.00,,,0.00,728,Wunderground v.1.15,2013-04-11 16:31:00,
2013-04-11 09:36:00,61.8,24.6,29.90,WNW,302,0.0,0.0,24,0.00,,,0.00,742,Wunderground v.1.15,2013-04-11 16:36:00,
2013-04-11 09:46:00,62.5,24.2,29.89,NW,315,1.0,1.0,23,0.00,,,0.00,772,Wunderground v.1.15,2013-04-11 16:46:00,
2013-04-11 09:51:00,62.8,23.3,29.89,NW,323,1.0,5.0,22,0.00,,,0.00,786,Wunderground v.1.15,2013-04-11 16:51:00,
2013-04-11 10:01:00,62.9,23.4,29.90,North,351,4.0,4.0,22,0.00,,,0.00,809,Wunderground v.1.15,2013-04-11 17:01:00,
2013-04-11 10:11:00,63.2,23.7,29.91,NNE,20,3.0,3.0,22,0.00,,,0.00,837,Wunderground v.1.15,2013-04-11 17:11:00,
2013-04-11 10:16:00,63.6,24.0,29.91,NNE,21,4.0,4.0,22,0.00,,,0.00,851,Wunderground v.1.15,2013-04-11 17:16:00,
2013-04-11 10:26:00,64.0,24.4,29.91,North,5,6.0,6.0,22,0.00,,,0.00,875,Wunderground v.1.15,2013-04-11 17:26:00,
2013-04-11 10:31:00,64.3,23.5,29.91,NNE,15,5.0,5.0,21,0.00,,,0.00,882,Wunderground v.1.15,2013-04-11 17:31:00,
2013-04-11 10:41:00,64.6,23.7,29.90,NNE,26,4.0,5.0,21,0.00,,,0.00,905,Wunderground v.1.15,2013-04-11 17:41:00,
2013-04-11 10:46:00,64.9,24.0,29.89,NNE,20,4.0,6.0,21,0.00,,,0.00,914,Wunderground v.1.15,2013-04-11 17:46:00,
2013-04-11 10:51:00,65.2,24.2,29.89,NNE,23,3.0,4.0,21,0.00,,,0.00,928,Wunderground v.1.15,2013-04-11 17:51:00,
2013-04-11 11:11:00,65.8,23.6,29.89,North,360,3.0,3.0,20,0.00,,,0.00,956,Wunderground v.1.15,2013-04-11 18:11:00,
2013-04-11 11:16:00,66.3,24.0,29.89,North,360,1.0,3.0,20,0.00,,,0.00,965,Wunderground v.1.15,2013-04-11 18:16:00,
2013-04-11 11:21:00,66.5,24.2,29.88,North,5,1.0,1.0,20,0.00,,,0.00,972,Wunderground v.1.15,2013-04-11 18:21:00,
2013-04-11 11:26:00,66.8,24.4,29.88,North,5,3.0,3.0,20,0.00,,,0.00,976,Wunderground v.1.15,2013-04-11 18:26:00,
2013-04-11 11:36:00,67.5,23.7,29.88,North,360,2.0,5.0,19,0.00,,,0.00,986,Wunderground v.1.15,2013-04-11 18:36:00,
2013-04-11 11:41:00,67.4,23.7,29.87,North,5,3.0,3.0,19,0.00,,,0.00,991,Wunderground v.1.15,2013-04-11 18:41:00,
2013-04-11 11:51:00,67.8,24.0,29.86,North,5,1.0,1.0,19,0.00,,,0.00,998,Wunderground v.1.15,2013-04-11 18:51:00,
2013-04-11 11:56:00,68.3,24.4,29.85,North,5,1.0,1.0,19,0.00,,,0.00,1004,Wunderground v.1.15,2013-04-11 18:56:00,
2013-04-11 12:11:00,69.0,23.7,29.84,North,351,3.0,3.0,18,0.00,,,0.00,1009,Wunderground v.1.15,2013-04-11 19:11:00,
2013-04-11 12:36:00,70.6,23.6,29.83,North,349,4.0,4.0,17,0.00,,,0.00,1011,Wunderground v.1.15,2013-04-11 19:36:00,
2013-04-11 12:41:00,70.9,23.9,29.82,North,349,4.0,4.0,17,0.00,,,0.00,1011,Wunderground v.1.15,2013-04-11 19:41:00,
2013-04-11 12:46:00,70.9,23.9,29.82,NNW,345,3.0,7.0,17,0.00,,,0.00,1009,Wunderground v.1.15,2013-04-11 19:46:00,
2013-04-11 12:56:00,71.5,24.4,29.82,NNW,338,3.0,4.0,17,0.00,,,0.00,1005,Wunderground v.1.15,2013-04-11 19:56:00,
2013-04-11 13:01:00,71.9,23.2,29.83,NNW,336,3.0,8.0,16,0.00,,,0.00,1002,Wunderground v.1.15,2013-04-11 20:01:00,
2013-04-11 13:11:00,72.4,22.1,29.83,NW,325,5.0,6.0,15,0.00,,,0.00,995,Wunderground v.1.15,2013-04-11 20:11:00,
2013-04-11 13:31:00,72.5,22.2,29.82,NNW,345,3.0,5.0,15,0.00,,,0.00,974,Wunderground v.1.15,2013-04-11 20:31:00,
2013-04-11 13:41:00,73.1,21.0,29.80,North,349,5.0,5.0,14,0.00,,,0.00,962,Wunderground v.1.15,2013-04-11 20:41:00,
2013-04-11 13:51:00,73.7,21.5,29.80,North,353,3.0,5.0,14,0.00,,,0.00,947,Wunderground v.1.15,2013-04-11 20:51:00,
2013-04-11 14:01:00,74.1,20.1,29.79,North,360,4.0,4.0,13,0.00,,,0.00,925,Wunderground v.1.15,2013-04-11 21:01:00,
2013-04-11 14:11:00,74.0,18.1,29.79,North,10,3.0,5.0,12,0.00,,,0.00,909,Wunderground v.1.15,2013-04-11 21:11:00,
2013-04-11 14:16:00,73.8,19.8,29.78,NNE,16,3.0,5.0,13,0.00,,,0.00,896,Wunderground v.1.15,2013-04-11 21:16:00,
2013-04-11 14:26:00,74.7,20.5,29.78,NNE,16,0.0,2.0,13,0.00,,,0.00,874,Wunderground v.1.15,2013-04-11 21:26:00,
2013-04-11 14:36:00,75.5,21.2,29.76,North,354,4.0,9.0,13,0.00,,,0.00,851,Wunderground v.1.15,2013-04-11 21:36:00,
2013-04-11 14:46:00,75.7,21.3,29.75,North,353,3.0,5.0,13,0.00,,,0.00,826,Wunderground v.1.15,2013-04-11 21:46:00,
2013-04-11 14:51:00,75.9,21.5,29.75,North,351,1.0,6.0,13,0.00,,,0.00,814,Wunderground v.1.15,2013-04-11 21:51:00,
2013-04-11 14:56:00,76.0,21.6,29.75,NNW,348,2.0,7.0,13,0.00,,,0.00,800,Wunderground v.1.15,2013-04-11 21:56:00,
2013-04-11 15:06:00,76.1,21.6,29.75,NW,326,2.0,2.0,13,0.00,,,0.00,772,Wunderground v.1.15,2013-04-11 22:06:00,
2013-04-11 15:16:00,76.7,22.1,29.75,NW,326,1.0,1.0,13,0.00,,,0.00,744,Wunderground v.1.15,2013-04-11 22:16:00,
2013-04-11 15:31:00,77.8,23.0,29.73,NW,313,2.0,4.0,13,0.00,,,0.00,694,Wunderground v.1.15,2013-04-11 22:31:00,
2013-04-11 15:36:00,77.7,22.9,29.73,NW,313,3.0,4.0,13,0.00,,,0.00,680,Wunderground v.1.15,2013-04-11 22:36:00,
2013-04-11 15:51:00,78.2,23.3,29.72,NW,313,1.0,1.0,13,0.00,,,0.00,629,Wunderground v.1.15,2013-04-11 22:51:00,
2013-04-11 15:56:00,78.2,23.3,29.72,NW,313,1.0,1.0,13,0.00,,,0.00,612,Wunderground v.1.15,2013-04-11 22:56:00,
2013-04-11 16:06:00,78.3,23.4,29.72,West,276,4.0,5.0,13,0.00,,,0.00,578,Wunderground v.1.15,2013-04-11 23:06:00,
2013-04-11 16:11:00,78.4,23.5,29.72,West,273,2.0,2.0,13,0.00,,,0.00,561,Wunderground v.1.15,2013-04-11 23:11:00,
2013-04-11 16:21:00,78.1,23.2,29.72,West,273,1.0,1.0,13,0.00,,,0.00,522,Wunderground v.1.15,2013-04-11 23:21:00,
2013-04-11 16:31:00,77.7,22.9,29.72,West,273,0.0,0.0,13,0.00,,,0.00,485,Wunderground v.1.15,2013-04-11 23:31:00,
2013-04-11 16:41:00,77.3,22.6,29.72,West,272,1.0,5.0,13,0.00,,,0.00,446,Wunderground v.1.15,2013-04-11 23:41:00,
2013-04-11 16:51:00,77.5,22.7,29.72,West,272,4.0,5.0,13,0.00,,,0.00,413,Wunderground v.1.15,2013-04-11 23:51:00,
2013-04-11 17:01:00,77.6,20.9,29.72,West,272,3.0,5.0,12,0.00,,,0.00,374,Wunderground v.1.15,2013-04-12 00:01:00,
2013-04-11 17:11:00,77.5,18.8,29.72,WNW,286,6.0,6.0,11,0.00,,,0.00,332,Wunderground v.1.15,2013-04-12 00:11:00,
2013-04-11 17:21:00,76.9,20.4,29.72,NW,304,7.0,7.0,12,0.00,,,0.00,297,Wunderground v.1.15,2013-04-12 00:21:00,
2013-04-11 17:31:00,76.3,19.9,29.72,WNW,296,5.0,8.0,12,0.00,,,0.00,248,Wunderground v.1.15,2013-04-12 00:31:00,
2013-04-11 17:41:00,74.9,20.7,29.72,WNW,299,7.0,7.0,13,0.00,,,0.00,225,Wunderground v.1.15,2013-04-12 00:41:00,
2013-04-11 17:51:00,74.5,22.1,29.73,NW,313,8.0,8.0,14,0.00,,,0.00,178,Wunderground v.1.15,2013-04-12 00:51:00,
2013-04-11 18:01:00,74.2,21.9,29.74,NW,308,8.0,8.0,14,0.00,,,0.00,116,Wunderground v.1.15,2013-04-12 01:01:00,
2013-04-11 18:21:00,72.4,22.1,29.71,NW,309,9.0,11.0,15,0.00,,,0.00,39,Wunderground v.1.15,2013-04-12 01:21:00,
2013-04-11 18:31:00,71.0,22.5,29.73,NW,311,10.0,10.0,16,0.00,,,0.00,18,Wunderground v.1.15,2013-04-12 01:31:00,
2013-04-11 18:36:00,70.4,22.0,29.73,NW,312,9.0,14.0,16,0.00,,,0.00,12,Wunderground v.1.15,2013-04-12 01:36:00,
2013-04-11 18:41:00,69.8,21.5,29.73,NW,310,8.0,8.0,16,0.00,,,0.00,9,Wunderground v.1.15,2013-04-12 01:41:00,
2013-04-11 18:46:00,69.3,22.6,29.74,NW,311,8.0,8.0,17,0.00,,,0.00,5,Wunderground v.1.15,2013-04-12 01:46:00,
2013-04-11 18:56:00,68.3,23.1,29.74,NW,318,7.0,8.0,18,0.00,,,0.00,0,Wunderground v.1.15,2013-04-12 01:56:00,
2013-04-11 19:01:00,67.9,22.8,29.74,NW,319,7.0,7.0,18,0.00,,,0.00,0,Wunderground v.1.15,2013-04-12 02:01:00,
2013-04-11 19:06:00,67.6,22.5,29.70,NW,320,7.0,7.0,18,0.00,,,0.00,0,Wunderground v.1.15,2013-04-12 02:06:00,
2013-04-11 19:16:00,66.9,23.3,29.71,NW,320,7.0,8.0,19,0.00,,,0.00,0,Wunderground v.1.15,2013-04-12 02:16:00,
2013-04-11 19:21:00,66.6,23.0,29.71,NW,319,7.0,8.0,19,0.00,,,0.00,0,Wunderground v.1.15,2013-04-12 02:21:00,
2013-04-11 19:31:00,65.9,23.7,29.72,NW,319,6.0,7.0,20,0.00,,,0.00,0,Wunderground v.1.15,2013-04-12 02:31:00,
2013-04-11 19:36:00,65.7,23.5,29.72,NW,319,5.0,7.0,20,0.00,,,0.00,0,Wunderground v.1.15,2013-04-12 02:36:00,
2013-04-11 19:46:00,65.1,23.0,29.73,NW,319,2.0,4.0,20,0.00,,,0.00,0,Wunderground v.1.15,2013-04-12 02:46:00,
2013-04-11 19:51:00,64.7,22.7,29.73,NW,319,0.0,2.0,20,0.00,,,0.00,0,Wunderground v.1.15,2013-04-12 02:51:00,
2013-04-11 20:01:00,63.6,22.9,29.74,NW,319,2.0,2.0,21,0.00,,,0.00,0,Wunderground v.1.15,2013-04-12 03:01:00,
2013-04-11 20:31:00,60.8,22.7,29.71,NW,319,0.0,0.0,23,0.00,,,0.00,0,Wunderground v.1.15,2013-04-12 03:31:00,
2013-04-11 20:36:00,60.4,22.4,29.72,NW,319,1.0,1.0,23,0.00,,,0.00,0,Wunderground v.1.15,2013-04-12 03:36:00,
2013-04-11 20:41:00,60.1,22.1,29.72,NW,319,1.0,4.0,23,0.00,,,0.00,0,Wunderground v.1.15,2013-04-12 03:41:00,
2013-04-11 20:51:00,59.6,22.7,29.72,NW,319,2.0,2.0,24,0.00,,,0.00,0,Wunderground v.1.15,2013-04-12 03:51:00,
2013-04-11 21:06:00,59.0,22.2,29.72,NW,319,0.0,0.0,24,0.00,,,0.00,0,Wunderground v.1.15,2013-04-12 04:06:00,
2013-04-11 21:11:00,58.7,22.0,29.72,NW,319,0.0,0.0,24,0.00,,,0.00,0,Wunderground v.1.15,2013-04-12 04:11:00,
2013-04-11 21:26:00,57.5,21.9,29.73,NW,319,0.0,0.0,25,0.00,,,0.00,0,Wunderground v.1.15,2013-04-12 04:26:00,
2013-04-11 21:36:00,56.8,21.3,29.73,NW,319,0.0,0.0,25,0.00,,,0.00,0,Wunderground v.1.15,2013-04-12 04:36:00,
2013-04-11 21:51:00,56.5,21.1,29.73,NW,319,0.0,0.0,25,0.00,,,0.00,0,Wunderground v.1.15,2013-04-12 04:51:00,
2013-04-11 21:56:00,56.3,20.9,29.74,NW,319,0.0,0.0,25,0.00,,,0.00,0,Wunderground v.1.15,2013-04-12 04:56:00,
2013-04-11 22:01:00,56.0,21.6,29.74,NW,319,1.0,1.0,26,0.00,,,0.00,0,Wunderground v.1.15,2013-04-12 05:01:00,
2013-04-11 22:06:00,55.8,21.4,29.72,NW,319,1.0,1.0,26,0.00,,,0.00,0,Wunderground v.1.15,2013-04-12 05:06:00,
2013-04-11 22:11:00,55.5,21.1,29.72,NW,319,0.0,0.0,26,0.00,,,0.00,0,Wunderground v.1.15,2013-04-12 05:11:00,
2013-04-11 22:16:00,55.3,21.0,29.73,NW,319,0.0,0.0,26,0.00,,,0.00,0,Wunderground v.1.15,2013-04-12 05:16:00,
2013-04-11 22:21:00,55.1,20.8,29.73,NW,319,0.0,0.0,26,0.00,,,0.00,0,Wunderground v.1.15,2013-04-12 05:21:00,
2013-04-11 22:26:00,54.9,20.6,29.73,NW,319,0.0,0.0,26,0.00,,,0.00,0,Wunderground v.1.15,2013-04-12 05:26:00,
2013-04-11 22:31:00,54.7,20.4,29.73,NW,319,0.0,0.0,26,0.00,,,0.00,0,Wunderground v.1.15,2013-04-12 05:31:00,
2013-04-11 22:36:00,54.5,20.3,29.73,NW,319,0.0,0.0,26,0.00,,,0.00,0,Wunderground v.1.15,2013-04-12 05:36:00,
2013-04-11 22:41:00,54.4,20.2,29.73,NW,319,0.0,0.0,26,0.00,,,0.00,0,Wunderground v.1.15,2013-04-12 05:41:00,
2013-04-11 22:51:00,53.7,20.5,29.73,NW,319,0.0,0.0,27,0.00,,,0.00,0,Wunderground v.1.15,2013-04-12 05:51:00,
2013-04-11 23:01:00,53.4,19.3,29.74,NW,319,0.0,0.0,26,0.00,,,0.00,0,Wunderground v.1.15,2013-04-12 06:01:00,
2013-04-11 23:06:00,53.2,19.2,29.73,NW,319,0.0,0.0,26,0.00,,,0.00,0,Wunderground v.1.15,2013-04-12 06:06:00,
2013-04-11 23:21:00,51.7,18.7,29.74,NW,319,0.0,0.0,27,0.00,,,0.00,0,Wunderground v.1.15,2013-04-12 06:21:00,
2013-04-11 23:31:00,50.8,18.0,29.74,NW,319,0.0,0.0,27,0.00,,,0.00,0,Wunderground v.1.15,2013-04-12 06:31:00,
2013-04-11 23:41:00,49.9,18.0,29.75,NW,319,0.0,0.0,28,0.00,,,0.00,0,Wunderground v.1.15,2013-04-12 06:41:00,
2013-04-11 23:46:00,49.3,18.3,29.75,NW,319,0.0,0.0,29,0.00,,,0.00,0,Wunderground v.1.15,2013-04-12 06:46:00,
2013-04-11 23:51:00,48.9,18.0,29.75,NW,319,0.0,0.0,29,0.00,,,0.00,0,Wunderground v.1.15,2013-04-12 06:51:00,
2013-04-11 23:56:00,48.4,18.3,29.75,NW,319,0.0,0.0,30,0.00,,,0.00,0,Wunderground v.1.15,2013-04-12 06:56:00,